[[{"header":{"parameterUnit":"m.s-1","parameterCategory":1,"la1":30.2991,"la2":30.254,"lo1":-89.0895,"lo2":-89.0444,"dy":0.0017,"dx":0.0017,"nx":28,"ny":28,"refTime":"2023-10-21T21:00:00:Z","depth":0,"parameterNumber":2,"parameterNumberName":"U-component_of_WINDS"},"data":[0,0,0,0,0,0,0,0,0,0,0,0,0,0,0,0,0,0,0,0,0,0,0,0,0,0,0,0,0,0,0,0,0,0,0,0,0,0,0,0,0,0,0,0,0,0,0,0,0,0,0,0,0,0,0,0,0,0,0.7131,0.7132,0,0.7236,0.7238,0.7239,0.727,0.727,0.7269,0.7269,0.738,0.7384,0.7387,0,0,0,0,0,0,0,0,0,0,0,0,0,0.6958,0.6961,0.7131,0.7132,0.7133,0.7236,0.7238,0.7239,0.727,0.727,0.7269,0.7268,0.7379,0.7383,0.7388,0,0,0,0,0,0,0,0,0,0,0,0,0,0.7045,0.6962,0.713,0.7161,0.7165,0.7236,0.7238,0.724,0.7271,0.727,0.7269,0.7268,0.7378,0.7383,0.7388,0.7437,0,0,0.7404,0.7406,0,0,0,0,0,0,0,0,0.704,0.7052,0.7155,0.7159,0.7164,0.7239,0.7218,0.7306,0.7271,0.7231,0.7269,0.7268,0.7334,0.7343,0.7365,0.7442,0.7447,0.7405,0.7408,0.741,0.7411,0,0,0,0,0,0,0,0.7034,0.7047,0.7173,0.7157,0.7162,0.7171,0.7182,0.7235,0.7286,0.7234,0.7237,0.7248,0.7336,0.736,0.7368,0.7449,0.7404,0.7409,0.7412,0.7414,0.7571,0.7572,0,0,0,0,0,0,0.7023,0.7042,0.7169,0.7176,0.7099,0.7174,0.7187,0.7216,0.7285,0.7295,0.7249,0.725,0.7351,0.7362,0.7372,0.7433,0.741,0.7415,0.7418,0.757,0.7571,0.7572,0,0,0,0,0,0,0.7019,0.7034,0.7165,0.711,0.7127,0.7178,0.721,0.7218,0.7242,0.7297,0.7306,0.7263,0.7351,0.7364,0.742,0.7437,0.7417,0.7422,0.7569,0.7571,0.7572,0.7556,0,0,0,0,0,0,0.7014,0.7032,0.7051,0.711,0.713,0.7211,0.7211,0.7221,0.725,0.7252,0.7313,0.7322,0.7351,0.7412,0.7425,0.7444,0.7426,0.7568,0.757,0.7571,0.7556,0.7557,0.7559,0,0,0,0,0,0.7007,0.7043,0.7051,0.7067,0.7154,0.7212,0.7223,0.7255,0.7251,0.7271,0.7306,0.732,0.7433,0.7418,0.7433,0.7454,0.7567,0.7569,0.7571,0.7555,0.7557,0.7559,0,0,0,0,0,0,0.6986,0.7051,0.7061,0.7117,0.7158,0.7217,0.7242,0.7257,0.7301,0.7301,0.734,0.7353,0.7406,0.7436,0.7417,0.7504,0.7501,0.7506,0.7483,0.7485,0.7487,0.7479,0.743,0,0,0,0,0,0.6987,0.7028,0.7083,0.7127,0.7147,0.7191,0.7217,0.7238,0.7283,0.7301,0.7341,0.7385,0.743,0.746,0.7505,0.756,0.7574,0.7582,0.7583,0.7584,0.7589,0.762,0.7624,0.758,0.758,0.758,0,0,0.6991,0.7032,0.7055,0.7124,0.7158,0.72,0.7206,0.725,0.7281,0.7309,0.7363,0.7394,0.7445,0.7501,0.7527,0.7527,0.7604,0.7587,0.7588,0.7591,0.7622,0.7627,0.763,0.7582,0.7581,0.7581,0,0,0.7019,0.7054,0.7094,0.7128,0.718,0.7209,0.7218,0.7275,0.7296,0.7351,0.7372,0.741,0.7488,0.7524,0.7552,0.7593,0.7607,0.7606,0.7614,0.7644,0.7648,0.7651,0.7665,0.767,0.7611,0.7611,0.7611,0,0.7018,0.7081,0.7113,0.7156,0.7185,0.721,0.7251,0.7283,0.7348,0.7368,0.7366,0.7463,0.75,0.7564,0.7574,0.7596,0.7608,0.76,0.7644,0.7648,0.7651,0.7665,0.7671,0.761,0.761,0.761,0.761,0,0.7076,0.7119,0.7146,0.7205,0.7238,0.728,0.7319,0.7348,0.7366,0.7395,0.7451,0.7495,0.7549,0.7566,0.7585,0.7633,0.7631,0.7636,0.7633,0.7655,0.7668,0.7674,0.7609,0.761,0.761,0.761,0,0,0.7094,0.717,0.7179,0.7207,0.7265,0.73,0.7343,0.7395,0.7418,0.7462,0.7499,0.7564,0.7569,0.7601,0.7624,0.765,0.7679,0.7652,0.7654,0.7655,0.7734,0.7729,0.7735,0.7688,0.7689,0.769,0.7729,0,0.7129,0.7206,0.7236,0.7298,0.7339,0.7363,0.74,0.7441,0.7469,0.7508,0.754,0.7584,0.7588,0.7607,0.7634,0.7669,0.7695,0.7667,0.7724,0.7725,0.7709,0.7742,0.7738,0.7772,0.7735,0.7736,0.7737,0,0.7181,0.7223,0.7289,0.7342,0.736,0.7393,0.7443,0.7479,0.7526,0.7545,0.758,0.7601,0.7647,0.7641,0.7705,0.7686,0.7711,0.7731,0.7734,0.774,0.7732,0.7749,0.7784,0.7789,0.7745,0.7745,0.7744,0,0.7186,0.726,0.7309,0.7332,0.7395,0.7418,0.7445,0.7491,0.7519,0.7563,0.7582,0.7631,0.7658,0.7695,0.7729,0.7722,0.7791,0.7787,0.7808,0.7807,0.7821,0.782,0.786,0.7837,0.7837,0.7837,0.7837,0,0.7222,0.7262,0.7312,0.7342,0.7387,0.7422,0.7466,0.7495,0.7535,0.7572,0.7596,0.763,0.7673,0.7712,0.7739,0.7788,0.7801,0.7817,0.7824,0.7815,0.7813,0.7832,0.783,0.7839,0.7838,0.7838,0.7838,0,0.7236,0.7272,0.7327,0.7382,0.7396,0.7427,0.7475,0.7505,0.7534,0.758,0.7593,0.7639,0.7687,0.7724,0.7787,0.7805,0.7856,0.7864,0.784,0.7844,0.7862,0.7859,0.7916,0.7925,0.7896,0.7896,0.7896,0,0.7257,0.7288,0.7346,0.7371,0.7398,0.744,0.7469,0.7504,0.7534,0.7588,0.7612,0.7661,0.7703,0.7778,0.7818,0.7865,0.7874,0.7891,0.7882,0.7871,0.7874,0.7872,0.7875,0.7892,0.7892,0.7892,0.7892,0,0.7289,0.7305,0.7346,0.7393,0.7427,0.7466,0.7505,0.7525,0.7568,0.76,0.7648,0.768,0.7743,0.7792,0.7844,0.7873,0.789,0.7894,0.7902,0.7893,0.7877,0.7885,0.7843,0.7893,0.7893,0.7893,0.7893,0.7893,0.7307,0.7335,0.738,0.7425,0.7458,0.7494,0.7525,0.7557,0.7598,0.7652,0.767,0.772,0.7766,0.7837,0.7866,0.7906,0.7907,0.7918,0.792,0.7922,0.7921,0.7871,0.7916,0.7916,0.7916,0.7916,0.7916,0,0.7341,0.737,0.7411,0.7465,0.75,0.7511,0.7556,0.7584,0.7627,0.7668,0.7708,0.7763,0.781,0.7853,0.7902,0.7926,0.7935,0.7938,0.7936,0.7943,0.7918,0.7906,0.793,0.793,0.793,0.793,0.7929,0.7929,0.7362,0.741,0.7431,0.7496,0.7526,0.7574,0.7598,0.7632,0.7664,0.7724,0.7763,0.779,0.7832,0.7884,0.7928,0.7939,0.7956,0.7957,0.797,0.7946,0.7944,0.7943,0.7932,0.7961,0.7961,0.7992,0.7993,0.7993]},{"header":{"parameterUnit":"m.s-1","parameterCategory":1,"la1":30.2991,"la2":30.254,"lo1":-89.0895,"lo2":-89.0444,"dy":0.0017,"dx":0.0017,"nx":28,"ny":28,"refTime":"2023-10-21T21:00:00:Z","depth":0,"parameterNumber":3,"parameterNumberName":"V-component_of_WINDS"},"data":[0,0,0,0,0,0,0,0,0,0,0,0,0,0,0,0,0,0,0,0,0,0,0,0,0,0,0,0,0,0,0,0,0,0,0,0,0,0,0,0,0,0,0,0,0,0,0,0,0,0,0,0,0,0,0,0,0,0,2.7782,2.7782,0,2.7723,2.7722,2.7722,2.7726,2.7726,2.7727,2.7728,2.7659,2.7656,2.7654,0,0,0,0,0,0,0,0,0,0,0,0,0,2.7892,2.789,2.7782,2.7782,2.7781,2.7723,2.7722,2.7721,2.7725,2.7727,2.7728,2.7729,2.766,2.7656,2.7653,0,0,0,0,0,0,0,0,0,0,0,0,0,2.7839,2.7889,2.7783,2.7776,2.7775,2.7723,2.7722,2.7721,2.7725,2.7727,2.7728,2.7729,2.7661,2.7657,2.7653,2.7601,0,0,2.764,2.7639,0,0,0,0,0,0,0,0,2.7842,2.7835,2.7778,2.7777,2.7775,2.7733,2.7735,2.768,2.7725,2.7744,2.7728,2.773,2.7682,2.7676,2.7662,2.7598,2.7595,2.764,2.7638,2.7636,2.7635,0,0,0,0,0,0,0,2.7846,2.7838,2.7759,2.7777,2.7775,2.7774,2.7768,2.7725,2.7706,2.7742,2.7743,2.7736,2.7681,2.7666,2.766,2.7594,2.764,2.7637,2.7634,2.7633,2.7483,2.7481,0,0,0,0,0,0,2.7852,2.7841,2.776,2.7757,2.7813,2.7771,2.7764,2.7745,2.7706,2.7702,2.7735,2.7736,2.7672,2.7665,2.7658,2.7594,2.7636,2.7632,2.763,2.7484,2.7482,2.7481,0,0,0,0,0,0,2.7854,2.7845,2.7763,2.7799,2.7788,2.7767,2.7746,2.7743,2.7728,2.7701,2.7696,2.7723,2.7673,2.7663,2.7615,2.7591,2.763,2.7627,2.7486,2.7484,2.7481,2.7466,0,0,0,0,0,0,2.7857,2.7846,2.7827,2.7799,2.7787,2.7724,2.7745,2.7741,2.7722,2.7723,2.7688,2.7684,2.7673,2.7621,2.7611,2.7587,2.7624,2.7488,2.7485,2.7482,2.7468,2.7463,2.7459,0,0,0,0,0,2.7861,2.7824,2.7827,2.7817,2.7764,2.7723,2.7715,2.7706,2.772,2.77,2.7683,2.7685,2.7596,2.7616,2.7605,2.7579,2.7489,2.7486,2.7482,2.747,2.7464,2.7459,0,0,0,0,0,0,2.7847,2.782,2.7823,2.7775,2.7752,2.7723,2.7698,2.77,2.767,2.7672,2.7659,2.7651,2.7603,2.7586,2.7609,2.7526,2.7544,2.7538,2.7539,2.7533,2.7528,2.7533,2.762,0,0,0,0,0,2.7839,2.7811,2.7787,2.7747,2.7735,2.7719,2.7701,2.7696,2.767,2.7659,2.7638,2.761,2.7576,2.7554,2.7521,2.7466,2.7458,2.7443,2.7438,2.7434,2.7429,2.7398,2.739,2.7469,2.7469,2.7469,0,0,2.7821,2.7802,2.7784,2.7744,2.7725,2.7693,2.771,2.7676,2.7652,2.7653,2.7607,2.7591,2.7558,2.7507,2.7483,2.7491,2.7405,2.743,2.7427,2.7423,2.7393,2.7386,2.7379,2.7467,2.7467,2.7468,0,0,2.7771,2.7755,2.772,2.7702,2.7674,2.7664,2.7655,2.7627,2.7617,2.7572,2.7572,2.7542,2.7483,2.7461,2.7441,2.7384,2.7384,2.7374,2.7348,2.7318,2.7312,2.7307,2.7285,2.7278,2.7368,2.7368,2.7368,0,2.7751,2.7706,2.7701,2.7667,2.7649,2.7652,2.7615,2.7596,2.7558,2.7544,2.7554,2.7482,2.746,2.7403,2.739,2.7374,2.7362,2.7377,2.7314,2.7308,2.7303,2.7282,2.7274,2.7367,2.7367,2.7367,2.7368,0,2.7683,2.7651,2.7626,2.7592,2.7571,2.7535,2.7523,2.7501,2.7498,2.7486,2.7439,2.7414,2.7376,2.7362,2.7357,2.7304,2.731,2.7317,2.7335,2.7294,2.7275,2.7267,2.7366,2.7366,2.7366,2.7367,0,0,2.7621,2.7587,2.7577,2.7562,2.7533,2.7507,2.7471,2.7437,2.7418,2.7391,2.7359,2.7311,2.7318,2.7296,2.7289,2.7263,2.7219,2.7274,2.7273,2.7263,2.7156,2.7151,2.7142,2.7219,2.7218,2.7217,2.7159,0,2.7568,2.7508,2.7502,2.7447,2.7417,2.742,2.7388,2.7365,2.7353,2.7323,2.7308,2.7274,2.7286,2.7273,2.7248,2.723,2.7197,2.7234,2.7187,2.7185,2.7194,2.7132,2.7125,2.7072,2.7151,2.715,2.7149,0,2.7498,2.7473,2.7415,2.7391,2.7378,2.735,2.7318,2.7291,2.7264,2.7257,2.7233,2.723,2.719,2.7211,2.7155,2.718,2.7161,2.7149,2.7147,2.7141,2.7164,2.7123,2.7055,2.7047,2.7137,2.7138,2.7139,0,2.7458,2.7409,2.7369,2.7356,2.7326,2.7306,2.7292,2.7267,2.7247,2.7218,2.7204,2.717,2.7151,2.7124,2.7111,2.7127,2.7055,2.7075,2.7046,2.7046,2.7029,2.703,2.6956,2.7019,2.7019,2.7019,2.7019,0,2.7399,2.7363,2.7351,2.7326,2.7285,2.7279,2.7238,2.7224,2.7202,2.7172,2.7172,2.7143,2.7129,2.7097,2.7086,2.7041,2.7032,2.7023,2.7021,2.7023,2.7024,2.7009,2.7012,2.7017,2.7017,2.7018,2.7018,0,2.7347,2.7338,2.7293,2.727,2.7263,2.7234,2.7212,2.7186,2.7175,2.7137,2.7128,2.7109,2.7072,2.7057,2.701,2.7003,2.6951,2.6951,2.6961,2.696,2.6932,2.6934,2.6844,2.6832,2.6903,2.6903,2.6902,0,2.7309,2.7282,2.7257,2.7238,2.7225,2.7195,2.7175,2.7167,2.7146,2.7114,2.7091,2.7056,2.7026,2.6967,2.6947,2.6911,2.691,2.6881,2.6905,2.6908,2.6909,2.691,2.6907,2.6876,2.6876,2.6875,2.6875,0,2.7243,2.724,2.7214,2.7185,2.7163,2.7139,2.7116,2.71,2.7088,2.7064,2.7028,2.7005,2.696,2.6923,2.6887,2.6869,2.6869,2.6868,2.6859,2.6861,2.6867,2.6862,2.6948,2.6869,2.687,2.687,2.6871,2.6871,2.7197,2.7173,2.7152,2.7122,2.7104,2.7083,2.7058,2.7044,2.7015,2.698,2.6976,2.6937,2.691,2.6862,2.6843,2.681,2.6817,2.6805,2.6802,2.6798,2.6796,2.6873,2.6804,2.6804,2.6804,2.6804,2.6804,0,2.713,2.7117,2.709,2.7059,2.7035,2.7041,2.7015,2.6994,2.6961,2.6937,2.6909,2.6867,2.6832,2.681,2.6774,2.6752,2.6751,2.6743,2.6744,2.674,2.6792,2.6803,2.6745,2.6745,2.6745,2.6745,2.6745,2.6745,2.7093,2.7053,2.7047,2.6998,2.6985,2.6949,2.6934,2.6913,2.6895,2.6849,2.6821,2.6809,2.6785,2.6747,2.6715,2.6709,2.6695,2.6686,2.6681,2.673,2.6736,2.6742,2.6752,2.6684,2.6683,2.6631,2.663,2.663]}]]